[[{"header":{"parameterUnit":"m.s-1","parameterCategory":1,"la1":30.2991,"la2":30.254,"lo1":-89.0895,"lo2":-89.0444,"dy":0.0017,"dx":0.0017,"nx":28,"ny":28,"refTime":"2025-06-13T03:00:00:Z","depth":0,"parameterNumber":2,"parameterNumberName":"U-component_of_WINDS"},"data":[0,0,0,0,0,0,0,0,0,0,0,0,0,0,0,0,0,0,0,0,0,0,0,0,0,0,0,0,0,0,0,0,0,0,0,0,0,0,0,0,0,0,0,0,0,0,0,0,0,0,0,0,0,0,0,0,0,0,0.6098,0.6097,0,0.6047,0.6046,0.6046,0.6,0.6,0.5999,0.5999,0.5944,0.5943,0.5942,0,0,0,0,0,0,0,0,0,0,0,0,0,0.6153,0.6152,0.6098,0.6097,0.6096,0.6047,0.6046,0.6045,0.6,0.6,0.5999,0.5999,0.5945,0.5943,0.5942,0,0,0,0,0,0,0,0,0,0,0,0,0,0.6118,0.6152,0.6098,0.6068,0.6065,0.6047,0.6046,0.6045,0.6001,0.6,0.5999,0.5998,0.5945,0.5944,0.5942,0.5949,0,0,0.5938,0.5937,0,0,0,0,0,0,0,0,0.612,0.6116,0.6073,0.607,0.6066,0.6029,0.6046,0.6013,0.6001,0.6025,0.5999,0.5998,0.5973,0.5969,0.5961,0.5946,0.5944,0.5938,0.5937,0.5936,0.5936,0,0,0,0,0,0,0,0.6123,0.6118,0.6077,0.6072,0.6068,0.6056,0.605,0.6039,0.6004,0.6023,0.6019,0.6014,0.5971,0.5963,0.596,0.5943,0.5938,0.5936,0.5935,0.5935,0.5929,0.593,0,0,0,0,0,0,0.613,0.6121,0.6079,0.6076,0.6092,0.6056,0.6049,0.6042,0.6004,0.5997,0.6015,0.6012,0.5966,0.5961,0.5958,0.5962,0.5936,0.5935,0.5934,0.5929,0.5929,0.593,0,0,0,0,0,0,0.6131,0.6127,0.6081,0.6097,0.6091,0.6056,0.6048,0.6041,0.6033,0.5998,0.5991,0.6013,0.5965,0.596,0.5951,0.5959,0.5934,0.5933,0.5928,0.5929,0.593,0.5971,0,0,0,0,0,0,0.6133,0.6128,0.6131,0.6098,0.609,0.6077,0.6048,0.6041,0.6031,0.6027,0.5994,0.5988,0.5964,0.5954,0.595,0.5957,0.5932,0.5927,0.5928,0.593,0.5969,0.5973,0.5977,0,0,0,0,0,0.6135,0.6144,0.6131,0.6126,0.6093,0.6077,0.6072,0.6045,0.6032,0.6034,0.6011,0.5989,0.5959,0.5953,0.5948,0.5955,0.5926,0.5928,0.5929,0.5967,0.5972,0.5977,0,0,0,0,0,0,0.6178,0.6139,0.6124,0.6122,0.6104,0.607,0.6071,0.6052,0.6036,0.6033,0.5998,0.5991,0.5986,0.597,0.5964,0.5959,0.594,0.594,0.597,0.5975,0.5979,0.5982,0.593,0,0,0,0,0,0.6187,0.6178,0.6145,0.6146,0.6138,0.6106,0.6098,0.6079,0.6057,0.6049,0.6026,0.6005,0.599,0.5982,0.5967,0.5966,0.5958,0.5968,0.5973,0.5976,0.5977,0.5974,0.5978,0.5936,0.5936,0.5936,0,0,0.6206,0.6184,0.618,0.6154,0.6137,0.6128,0.61,0.6091,0.6084,0.6047,0.6038,0.602,0.5995,0.599,0.5987,0.5976,0.5987,0.5979,0.5982,0.598,0.5976,0.598,0.5984,0.5937,0.5936,0.5936,0,0,0.6235,0.6218,0.6217,0.6201,0.6175,0.6154,0.6154,0.6123,0.611,0.61,0.6072,0.6062,0.6039,0.6021,0.601,0.6032,0.6011,0.6028,0.605,0.6047,0.6051,0.6053,0.606,0.6063,0.6029,0.6029,0.6029,0,0.6261,0.6247,0.6219,0.6212,0.6201,0.6168,0.6166,0.6151,0.6122,0.6115,0.6104,0.6073,0.6053,0.6043,0.6049,0.6041,0.6038,0.6031,0.6053,0.6055,0.6057,0.6063,0.6066,0.6031,0.6031,0.6031,0.6031,0,0.628,0.627,0.6272,0.6246,0.6235,0.623,0.62,0.6193,0.6174,0.6154,0.6144,0.6119,0.6098,0.6095,0.6076,0.6082,0.6076,0.6059,0.6039,0.6064,0.6069,0.6071,0.6034,0.6034,0.6033,0.6032,0,0,0.6334,0.6291,0.6292,0.628,0.6249,0.6241,0.6235,0.6215,0.6208,0.6189,0.6182,0.6163,0.6147,0.6134,0.6113,0.6111,0.6128,0.6094,0.6093,0.61,0.6131,0.6143,0.6146,0.6115,0.6115,0.6115,0.6133,0,0.6357,0.6344,0.6318,0.6314,0.6304,0.6273,0.6267,0.6247,0.6228,0.6216,0.6195,0.6181,0.6162,0.6154,0.615,0.6127,0.6134,0.6126,0.6106,0.6106,0.6112,0.6149,0.6162,0.618,0.6135,0.6135,0.6135,0,0.6382,0.6365,0.636,0.633,0.6324,0.632,0.6299,0.6289,0.6265,0.6251,0.6236,0.6214,0.6204,0.6186,0.6172,0.6166,0.6157,0.6144,0.6144,0.614,0.6121,0.6145,0.6185,0.6187,0.6138,0.6138,0.6138,0,0.642,0.6396,0.639,0.638,0.6345,0.6342,0.6327,0.6303,0.6292,0.6274,0.6266,0.6247,0.6236,0.6221,0.6193,0.6183,0.6181,0.6162,0.6168,0.6169,0.6168,0.6168,0.6206,0.6164,0.6164,0.6164,0.6164,0,0.6448,0.6445,0.6406,0.6402,0.6398,0.6368,0.6364,0.6346,0.6325,0.6316,0.6288,0.628,0.6244,0.6231,0.6209,0.62,0.6195,0.6183,0.6177,0.6185,0.6186,0.6177,0.6175,0.6165,0.6165,0.6165,0.6164,0,0.6489,0.6463,0.6454,0.6421,0.6413,0.6411,0.6383,0.6377,0.6357,0.6345,0.6341,0.6308,0.6292,0.6263,0.6238,0.6223,0.6217,0.6208,0.6226,0.6222,0.6229,0.6229,0.6261,0.6263,0.6222,0.6223,0.6223,0,0.6508,0.6505,0.6473,0.6465,0.6452,0.644,0.6429,0.6399,0.6389,0.6362,0.6359,0.634,0.6324,0.6298,0.6272,0.6252,0.6241,0.6254,0.6238,0.6245,0.624,0.624,0.6239,0.6257,0.6258,0.6258,0.6259,0,0.6544,0.6531,0.6517,0.6498,0.6487,0.647,0.6452,0.6447,0.6413,0.6403,0.6386,0.6374,0.6348,0.633,0.6306,0.6289,0.6268,0.6264,0.6264,0.6272,0.6282,0.6275,0.6234,0.6263,0.6263,0.6262,0.6262,0.6262,0.6573,0.6569,0.6546,0.6531,0.6514,0.6498,0.6491,0.647,0.6456,0.6433,0.6416,0.6401,0.6376,0.6343,0.6327,0.6313,0.6303,0.6304,0.6304,0.6304,0.6307,0.6285,0.6309,0.6309,0.6309,0.6308,0.6308,0,0.6606,0.659,0.6576,0.6553,0.6541,0.6523,0.6502,0.6493,0.648,0.6459,0.6444,0.6424,0.6406,0.6378,0.6357,0.6351,0.6341,0.6347,0.6346,0.6342,0.6317,0.6319,0.6355,0.6355,0.6355,0.6355,0.6355,0.6355,0.6622,0.6613,0.6598,0.6581,0.6564,0.6549,0.6539,0.6523,0.6507,0.6486,0.6471,0.6454,0.6429,0.6407,0.6389,0.6381,0.6374,0.6383,0.6372,0.6349,0.6344,0.634,0.6341,0.6382,0.6382,0.6397,0.6397,0.6397]},{"header":{"parameterUnit":"m.s-1","parameterCategory":1,"la1":30.2991,"la2":30.254,"lo1":-89.0895,"lo2":-89.0444,"dy":0.0017,"dx":0.0017,"nx":28,"ny":28,"refTime":"2025-06-13T03:00:00:Z","depth":0,"parameterNumber":3,"parameterNumberName":"V-component_of_WINDS"},"data":[0,0,0,0,0,0,0,0,0,0,0,0,0,0,0,0,0,0,0,0,0,0,0,0,0,0,0,0,0,0,0,0,0,0,0,0,0,0,0,0,0,0,0,0,0,0,0,0,0,0,0,0,0,0,0,0,0,0,4.4867,4.4867,0,4.4886,4.4887,4.4887,4.4806,4.4804,4.4802,4.4799,4.482,4.4823,4.4825,0,0,0,0,0,0,0,0,0,0,0,0,0,4.4758,4.4761,4.4867,4.4867,4.4867,4.4886,4.4887,4.4887,4.4807,4.4804,4.4801,4.4798,4.4819,4.4822,4.4826,0,0,0,0,0,0,0,0,0,0,0,0,0,4.4795,4.4762,4.4867,4.483,4.4826,4.4886,4.4887,4.4887,4.4807,4.4804,4.48,4.4797,4.4818,4.4822,4.4826,4.4923,0,0,4.4839,4.484,0,0,0,0,0,0,0,0,4.4793,4.4799,4.4835,4.4832,4.4829,4.484,4.4856,4.4899,4.4808,4.4815,4.4799,4.4795,4.483,4.4832,4.4844,4.4923,4.4924,4.4839,4.4841,4.4843,4.4844,0,0,0,0,0,0,0,4.479,4.4797,4.4874,4.4835,4.4832,4.4811,4.4813,4.4864,4.4842,4.4814,4.4808,4.4811,4.4827,4.484,4.4844,4.4925,4.4839,4.4842,4.4845,4.4847,4.5081,4.5085,0,0,0,0,0,0,4.4793,4.4796,4.4874,4.4875,4.4802,4.4816,4.4818,4.484,4.4841,4.4838,4.4814,4.4808,4.4835,4.4839,4.4844,4.4955,4.4843,4.4847,4.4849,4.5078,4.5082,4.5086,0,0,0,0,0,0,4.4791,4.48,4.4873,4.4834,4.4841,4.4822,4.4848,4.4842,4.4855,4.4841,4.4837,4.4832,4.4832,4.4838,4.4903,4.4955,4.4849,4.4853,4.5073,4.5079,4.5084,4.5179,0,0,0,0,0,0,4.4788,4.48,4.4837,4.4835,4.4844,4.4932,4.4851,4.4845,4.4863,4.4854,4.4857,4.4854,4.483,4.4897,4.4907,4.4958,4.4856,4.5068,4.5076,4.5082,4.5171,4.5187,4.5201,0,0,0,0,0,4.4784,4.4864,4.484,4.4849,4.489,4.4935,4.494,4.4911,4.4867,4.4903,4.4894,4.4854,4.4948,4.4905,4.4915,4.4968,4.5065,4.5074,4.5082,4.5165,4.5184,4.5201,0,0,0,0,0,0,4.4873,4.4863,4.4836,4.4917,4.4928,4.4922,4.4967,4.4933,4.4957,4.4947,4.4911,4.4912,4.4982,4.4982,4.4934,4.506,4.4999,4.501,4.5058,4.5076,4.5091,4.5089,4.4859,0,0,0,0,0,4.4902,4.494,4.4929,4.5002,4.5008,4.4987,4.5006,4.4982,4.4992,4.4996,4.4991,4.5002,4.5033,4.5055,4.5084,4.5171,4.5169,4.5213,4.5228,4.524,4.525,4.5293,4.5312,4.5114,4.5114,4.5114,0,0,4.4963,4.4962,4.4988,4.502,4.5025,4.5064,4.4991,4.5037,4.5065,4.5003,4.5062,4.506,4.5069,4.5145,4.5178,4.5146,4.5304,4.5251,4.5261,4.5263,4.5304,4.5322,4.5339,4.512,4.5119,4.5118,0,0,4.5092,4.5096,4.5156,4.5162,4.5171,4.5156,4.517,4.5169,4.5164,4.5224,4.5177,4.521,4.5266,4.5274,4.5285,4.5416,4.5378,4.5426,4.5503,4.5546,4.5562,4.5576,4.562,4.5637,4.5436,4.5436,4.5436,0,4.5166,4.5224,4.5191,4.5239,4.5253,4.5198,4.5257,4.5265,4.5283,4.5294,4.5258,4.5326,4.5328,4.5404,4.5435,4.5447,4.5461,4.5425,4.5562,4.5576,4.5588,4.563,4.5647,4.5442,4.5441,4.544,4.544,0,4.5313,4.5353,4.54,4.5417,4.5437,4.5491,4.5466,4.549,4.5464,4.5453,4.5513,4.5514,4.554,4.5557,4.5533,4.5628,4.5608,4.5569,4.5505,4.5613,4.5651,4.5667,4.545,4.5448,4.5446,4.5445,0,0,4.5499,4.5496,4.5514,4.552,4.5524,4.5555,4.5605,4.563,4.5651,4.5665,4.5705,4.5753,4.5715,4.5728,4.5704,4.5743,4.5843,4.5697,4.5697,4.5723,4.5945,4.5974,4.5993,4.5819,4.5821,4.5824,4.5944,0,4.5625,4.571,4.5681,4.5767,4.5803,4.575,4.5793,4.5801,4.5791,4.5819,4.5808,4.5842,4.5791,4.5798,4.5833,4.5823,4.5887,4.5814,4.5854,4.5856,4.5852,4.6014,4.6045,4.6158,4.5959,4.5962,4.5963,0,4.5782,4.5801,4.5891,4.5886,4.59,4.594,4.5959,4.5988,4.5994,4.5984,4.5998,4.5966,4.6013,4.5951,4.6016,4.5967,4.5982,4.5979,4.5983,4.5984,4.5915,4.6018,4.6193,4.621,4.5987,4.5985,4.5984,0,4.5907,4.5954,4.6013,4.602,4.6018,4.6046,4.6047,4.6049,4.6066,4.6083,4.6093,4.6116,4.6129,4.6147,4.6121,4.6079,4.6189,4.6125,4.6181,4.6182,4.6206,4.6204,4.6384,4.6218,4.6218,4.6218,4.6217,0,4.6049,4.6105,4.6068,4.6105,4.6166,4.6132,4.6193,4.6187,4.619,4.6223,4.618,4.6212,4.6177,4.6206,4.6187,4.6242,4.6249,4.6241,4.6235,4.6244,4.6245,4.6252,4.6243,4.6222,4.6221,4.622,4.622,0,4.6198,4.6176,4.6236,4.6228,4.6227,4.6272,4.6265,4.6297,4.6284,4.6327,4.6335,4.6314,4.6346,4.6322,4.6354,4.6341,4.6413,4.6397,4.6411,4.6405,4.6461,4.6456,4.6651,4.6674,4.6495,4.6497,4.6499,0,4.6289,4.6331,4.6326,4.6345,4.6348,4.6379,4.6395,4.6363,4.6381,4.639,4.6421,4.6449,4.6469,4.6522,4.6509,4.6533,4.6516,4.6583,4.6519,4.6526,4.6514,4.6511,4.6514,4.6595,4.6597,4.6599,4.66,0,4.6452,4.6439,4.6463,4.6483,4.6503,4.6517,4.6528,4.6546,4.6513,4.6536,4.6567,4.6583,4.6614,4.6642,4.666,4.666,4.6625,4.6621,4.6634,4.6643,4.6649,4.6644,4.6444,4.6616,4.6615,4.6613,4.6613,4.6612,4.6574,4.6607,4.6609,4.6636,4.6641,4.6652,4.6681,4.6671,4.6696,4.6718,4.6698,4.6735,4.6738,4.6759,4.6763,4.6791,4.6764,4.6784,4.6789,4.6794,4.6801,4.6646,4.6795,4.6795,4.6794,4.6794,4.6793,0,4.6733,4.6731,4.6757,4.6772,4.6794,4.6758,4.6768,4.6788,4.6821,4.6827,4.6847,4.6882,4.6908,4.6897,4.692,4.6944,4.6928,4.6951,4.6948,4.6948,4.6826,4.681,4.6963,4.6963,4.6963,4.6963,4.6963,4.6963,4.6819,4.6873,4.6859,4.6914,4.6911,4.6946,4.6955,4.6964,4.6968,4.7009,4.7029,4.7022,4.702,4.7042,4.7064,4.706,4.707,4.7098,4.7088,4.6974,4.6957,4.6941,4.6926,4.7101,4.7101,4.7208,4.7209,4.7209]}]]